[Date Prev][Date Next][Thread Prev][Thread Next] - [Date Index][Thread Index][Author Index]
2 Line ISS Keps 4-28
- Subject: [sarex] 2 Line ISS Keps 4-28
- From: "Dave Larsen PhD" <doc@xxxxxxxxxxx>
- Date: Mon, 28 Apr 2003 02:58:14 -0700
ISS
1 25544U 98067A 03118.16510417 -.00023630 00000-0 -29623-3 0 9382
2 25544 51.6324 271.5589 0006409 65.4144 300.3261 15.58612854253205
----
Via the sarex mailing list at AMSAT.ORG courtesy of AMSAT-NA.
To unsubscribe, send "unsubscribe sarex" to Majordomo@amsat.org
AMSAT Home